Flag for Poland Weather past 2 weeks in Gliwice, Poland

Now
19 °F

Passing clouds.


Feels Like: 11 °F
Forecast: 18 / 26 °F
Wind: 6 mph from East

Location: Katowice Airport

Current Time: Dec 28, 2014 at 5:01:03 AM

Latest Report: Dec 28, 2014 at 4:30 AM


Visibility: 5 mi

Pressure: 29.83 "Hg

Humidity: 93%

Dew point: 18 °F

Location of GliwiceLocation

Historic Weather in Gliwice — Graph

°F

Gliwice temperature yesterday

Maximum temperature yesterday: 18 °F (at 12:00 AM)
Minimum temperature yesterday: 10 °F (at 4:30 AM)
Average temperature yesterday: 14 °F

Past Weeks' High & Low Weather Summary

 TemperatureHumidityPressure
High52 °F (Dec 19, 11:30 AM)100% (Dec 16, 8:30 AM)30.21 "Hg (Dec 16, 8:30 AM)
Low10 °F (Dec 27, 4:30 AM)46% (Dec 13, 10:30 AM)29.74 "Hg (Dec 13, 3:00 AM)
Average39 °F83%29.94 "Hg
* Reported Dec 13 3:00 AM — Dec 28 3:30 AM, Gliwice, Weather by CustomWeather, © 2014

Note: Actual official high and low records may vary slightly from our data, if they occured in-between our weather recording intervals... More about our weather records

Advertising

Gliwice weather history for previous 24 hours

 ConditionsComfort  
Time TempWeatherWind HumidityBarometerVisibility
3:30 AM
Dec 28
18 °FPassing clouds.6 mph93%29.83 "Hg5 mi
3:00 AM18 °FPassing clouds.6 mph93%29.80 "Hg4 mi
2:30 AM18 °FIce fog.6 mph93%29.80 "Hg3 mi
2:00 AM16 °FIce fog.3 mph93%29.83 "Hg2 mi
1:30 AM16 °FIce fog.5 mph93%29.80 "Hg2 mi
1:00 AM18 °FPassing clouds.7 mph93%29.80 "Hg4 mi
12:30 AM16 °FIce fog.6 mph93%29.80 "Hg3 mi
12:00 AM14 °FIce fog.3 mph92%29.80 "Hg3 mi
11:30 PM
Dec 27
10 °FIce fog.5 mph92%29.80 "Hg2 mi
11:00 PM12 °FIce fog.5 mph100%29.80 "Hg2 mi
10:30 PM12 °FIce fog.7 mph92%29.80 "Hg2 mi
10:00 PM12 °FIce fog.7 mph92%29.80 "Hg2 mi
9:30 PM12 °FIce fog.7 mph92%29.80 "Hg3 mi
9:00 PM12 °FIce fog.8 mph92%29.80 "Hg3 mi
8:30 PM12 °FIce fog.6 mph92%29.80 "Hg3 mi
8:00 PM12 °FIce fog.7 mph92%29.80 "Hg3 mi
7:30 PM12 °FIce fog.7 mph92%29.80 "Hg3 mi
7:00 PM12 °FClear.8 mph92%29.80 "Hg4 mi
6:30 PM12 °FIce fog.7 mph85%29.80 "Hg3 mi
6:00 PM12 °FIce fog.7 mph92%29.80 "Hg3 mi
5:30 PM12 °FIce fog.7 mph92%29.83 "Hg3 mi
5:00 PM12 °FIce fog.7 mph92%29.83 "Hg3 mi
4:30 PM14 °FClear.6 mph85%29.83 "Hg4 mi
4:00 PM16 °FClear.8 mph86%29.83 "Hg5 mi
3:30 PM16 °FClear.8 mph86%29.83 "Hg5 mi
3:00 PM18 °FClear.7 mph86%29.86 "Hg5 mi
2:30 PM18 °FClear.5 mph86%29.86 "Hg5 mi
2:00 PM18 °FClear.5 mph86%29.86 "Hg5 mi
1:30 PM18 °FPassing clouds.5 mph86%29.89 "Hg5 mi
1:00 PM16 °FPassing clouds.3 mph93%29.89 "Hg4 mi
12:30 PM16 °FBroken clouds.3 mph93%29.92 "Hg4 mi
12:00 PM16 °FBroken clouds.6 mph93%29.92 "Hg4 mi
11:30 AM14 °FPartly sunny.5 mph92%29.95 "Hg4 mi
11:00 AM14 °FLight snow. Broken clouds.5 mph100%29.98 "Hg4 mi
10:30 AM16 °FBroken clouds.5 mph93%29.98 "Hg4 mi
10:00 AM14 °FBroken clouds.3 mph92%30.01 "Hg4 mi
9:30 AM14 °FLight snow. Ice fog.5 mph100%30.01 "Hg3 mi
9:00 AM14 °FLight snow. Ice fog.5 mph100%30.04 "Hg3 mi
8:30 AM14 °FLight snow. Ice fog.2 mph100%30.04 "Hg3 mi
8:00 AM14 °FLight snow. Partly sunny.3 mph92%30.04 "Hg4 mi
7:30 AM14 °FPassing clouds.2 mph100%30.07 "Hg4 mi
7:00 AM14 °FPartly cloudy.2 mph92%30.07 "Hg4 mi
6:30 AM12 °FPassing clouds.3 mph85%30.07 "Hg4 mi
6:00 AM12 °FPassing clouds.2 mph92%30.07 "Hg4 mi
5:30 AM10 °FPassing clouds.1 mph92%30.09 "Hg4 mi
Weather by CustomWeather, © 2014

See weather overviewHow to use our weather pages